Temperature
6 7 7 7 8 8 8 8 8 9 9 9 9 10 10 10 9 9 9 9 9 8 8 9 9 10 10 10 11 11 11 11 11 11 11 11 11 11 11 11 11 11 11 11
6 6 7 7 6 7 7 7 8 8 8 8 9 9 9 9 9 8 8 8 8 8 8 8 8 9 9 9 10 10 10 10 11 11 11 11 11 10 10 10 10 10 11 11
6 6 6 5 6 6 7 7 7 7 7 8 8 8 9 9 8 7 7 7 7 7 7 7 8 8 8 9 9 9 10 10 10 10 10 10 10 10 10 10 10 10 10 10
5 5 5 5 5 5 6 7 6 6 7 8 8 8 9 9 8 7 7 6 6 6 6 6 7 7 8 8 8 9 9 9 10 10 10 10 10 10 10 10 10 10 10 10
5 4 4 5 5 5 6 6 6 6 6 6 7 7 8 8 7 7 7 6 5 5 5 5 6 6 7 8 8 8 8 9 9 9 9 9 9 9 9 9 9 9 9 9
4 4 4 4 5 5 5 5 5 6 6 5 7 7 8 7 6 6 6 5 4 4 4 4 5 5 6 7 7 8 8 8 8 9 9 9 9 9 9 9 9 9 9 9
3 4 4 4 4 4 4 5 5 5 5 6 7 6 6 5 5 5 4 4 3 3 3 3 4 5 5 6 6 7 7 7 8 8 8 9 9 9 9 9 8 8 9 9
2 3 3 3 3 3 4 4 5 5 6 7 6 6 5 4 3 3 3 2 2 2 2 2 2 3 4 5 5 6 6 7 7 8 8 8 8 8 8 8 8 8 8 8
2 2 3 3 3 3 3 3 4 4 5 5 5 5 4 3 3 3 2 2 1 1 1 1 2 2 3 4 5 5 6 6 7 7 7 7 8 8 8 8 8 8 8 8
1 1 2 2 3 3 3 3 3 3 4 5 5 5 4 2 2 2 2 1 0 0 0 1 1 2 3 3 4 4 5 5 6 6 6 7 7 7 7 7 7 7 7 7
0 0 1 2 1 1 1 1 2 3 3 4 4 4 2 2 1 1 1 0 -0 -0 -0 0 0 1 2 3 3 4 4 4 5 5 6 6 6 6 7 7 7 7 7 7
-0 0 1 1 1 1 1 0 1 1 2 3 3 3 1 0 0 0 -0 -0 -1 -1 -1 -1 -0 1 2 2 3 3 4 4 4 5 5 5 6 6 6 6 6 6 6 7
-1 -1 -0 1 1 0 -0 -0 -1 -0 1 1 2 2 1 -0 -0 -1 -1 -2 -2 -2 -2 -1 -1 0 1 1 2 2 3 3 4 4 4 5 5 5 5 5 6 6 6 6
-1 -1 -1 -0 -0 -1 -1 -1 -1 -1 -0 0 1 1 -0 -1 -1 -2 -2 -3 -3 -3 -2 -2 -2 -1 0 1 1 2 2 3 3 3 3 4 4 4 5 5 5 5 5 5
-1 -2 -2 -1 -1 -1 -1 -1 -1 -2 -1 -1 -0 -1 -1 -2 -2 -3 -3 -3 -3 -3 -3 -3 -2 -2 -1 0 1 1 2 2 2 3 3 3 3 4 4 4 4 4 4 5
-2 -3 -2 -2 -1 -1 -2 -2 -2 -2 -2 -2 -1 -2 -2 -3 -3 -4 -4 -4 -4 -4 -4 -4 -3 -2 -2 -1 0 1 1 2 2 2 2 3 3 3 3 3 4 4 4 4
-3 -3 -3 -2 -2 -2 -3 -3 -3 -3 -3 -3 -3 -3 -3 -3 -4 -4 -5 -5 -5 -5 -5 -4 -4 -3 -2 -2 -1 0 1 1 1 2 2 2 2 2 2 3 3 3 3 3
-4 -4 -3 -2 -2 -3 -3 -3 -4 -4 -4 -4 -4 -4 -4 -5 -5 -5 -6 -6 -6 -6 -5 -5 -4 -3 -3 -2 -1 -1 -0 0 1 1 1 2 2 2 2 2 2 2 2 2
-4 -4 -3 -3 -3 -3 -3 -4 -4 -4 -4 -5 -5 -5 -5 -6 -5 -5 -6 -6 -6 -6 -6 -5 -4 -4 -3 -2 -2 -1 -1 -0 0 0 1 1 1 1 1 1 1 2 2 2
-4 -4 -4 -4 -3 -4 -4 -4 -5 -4 -4 -5 -6 -6 -6 -6 -4 -5 -6 -7 -7 -6 -6 -5 -5 -4 -3 -3 -2 -2 -2 -1 -1 -0 0 0 1 1 1 1 1 1 1 1
-5 -5 -5 -4 -4 -4 -5 -6 -5 -4 -5 -6 -7 -7 -7 -7 -6 -7 -7 -7 -7 -7 -6 -5 -5 -4 -4 -4 -3 -3 -2 -2 -1 -1 -1 -0 0 0 0 0 0 1 1 1
-5 -5 -5 -5 -5 -5 -6 -6 -6 -6 -7 -7 -7 -8 -8 -8 -8 -8 -8 -8 -7 -7 -6 -6 -5 -5 -5 -4 -4 -4 -3 -3 -2 -2 -1 -1 -1 -1 -1 -0 -0 -0 -0 -0
-6 -6 -5 -6 -5 -7 -7 -7 -8 -8 -8 -8 -8 -8 -8 -8 -8 -8 -9 -8 -8 -8 -7 -7 -6 -6 -5 -5 -5 -4 -4 -4 -3 -2 -2 -2 -2 -1 -1 -1 -1 -1 -1 -1
-7 -8 -7 -7 -6 -7 -8 -8 -8 -9 -9 -9 -9 -9 -9 -9 -9 -9 -9 -9 -9 -8 -8 -7 -7 -7 -6 -6 -6 -5 -5 -4 -4 -3 -3 -3 -2 -2 -2 -2 -2 -2 -2 -2
-8 -8 -8 -7 -7 -8 -8 -9 -9 -9 -9 -9 -9 -9 -9 -9 -9 -10 -10 -10 -9 -9 -8 -8 -8 -7 -7 -7 -6 -6 -5 -5 -4 -4 -4 -3 -3 -3 -2 -2 -2 -2 -2 -2
-9 -9 -8 -7 -8 -9 -9 -9 -10 -10 -10 -10 -10 -10 -10 -10 -10 -10 -10 -10 -10 -9 -9 -8 -8 -8 -7 -7 -6 -6 -6 -5 -5 -4 -4 -4 -4 -3 -3 -3 -3 -3 -3 -3
Wind_Speed
1 3 6 8 10 10 9 11 12 10 6 7 12 13 10 6 6 7 7 6 6 6 5 4 4 4 6 6 7 8 9 8 8 8 8 7 7 6 6 6 7 8 8 8
2 5 7 5 6 8 10 11 12 9 6 8 10 12 10 7 7 6 6 7 6 5 3 3 3 4 5 6 7 8 9 9 9 7 7 6 6 5 5 5 7 8 8 8
3 3 4 3 5 7 11 12 11 9 7 7 8 11 11 7 4 3 4 5 4 4 4 4 4 4 5 5 7 7 9 9 8 8 7 6 5 4 4 5 5 6 7 8
4 4 3 3 5 6 10 8 10 10 7 6 7 7 7 7 4 2 3 3 4 3 3 3 3 4 5 6 6 7 8 8 8 9 9 10 8 7 6 6 5 6 7 7
3 4 4 4 6 7 6 6 9 10 10 8 8 7 5 5 5 3 3 4 4 3 2 2 2 2 3 4 5 6 7 7 8 9 10 10 8 7 6 6 7 7 6 6
4 3 3 5 6 4 4 4 5 6 7 9 11 9 5 2 4 4 4 5 5 4 4 3 2 1 1 1 3 5 7 7 7 8 9 10 10 9 9 8 7 6 5 5
4 2 3 3 4 1 1 2 3 5 7 7 6 7 3 2 3 4 5 6 6 5 4 4 3 2 1 0 1 4 6 6 7 8 8 9 10 10 10 9 8 7 5 5
5 4 3 4 3 3 3 4 4 5 6 4 4 6 1 3 4 5 5 5 7 7 5 4 3 2 1 1 2 3 5 5 6 7 7 8 9 8 7 8 7 7 6 6
4 5 4 5 4 2 2 4 5 5 4 5 5 3 1 5 7 8 8 8 8 8 7 5 4 3 2 1 2 3 4 4 5 6 6 7 7 7 7 8 7 6 6 5
3 6 5 4 3 3 3 3 3 3 4 5 5 5 2 5 7 9 10 10 9 8 8 6 5 4 2 1 2 3 3 4 4 5 5 5 6 7 7 7 7 7 6 6
3 4 4 2 2 4 3 2 3 4 4 4 4 2 4 6 7 8 9 9 9 8 8 7 6 4 3 1 1 2 2 3 3 3 4 5 5 5 6 6 7 6 6 6
3 3 4 3 2 3 1 3 2 3 3 3 4 1 5 8 8 8 9 9 9 8 8 8 7 5 3 2 0 1 2 2 3 3 4 4 5 5 6 6 6 6 6 6
2 2 4 1 0 3 2 4 4 3 3 3 4 2 6 9 10 10 10 10 9 9 9 9 8 7 5 3 1 1 1 1 2 2 3 4 5 5 5 6 6 6 6 6
2 2 3 4 4 3 5 5 5 2 2 3 5 6 9 12 12 12 11 10 10 9 9 8 8 7 6 5 3 1 0 1 1 2 3 4 4 5 5 5 6 6 6 6
3 2 3 5 5 3 4 5 4 2 3 4 6 7 9 10 11 11 11 11 11 11 10 9 8 8 7 6 4 3 2 1 1 2 2 3 3 4 4 4 5 5 5 6
3 3 3 4 3 3 3 5 3 3 4 5 6 6 8 9 9 10 11 11 11 11 11 10 9 8 8 7 5 3 2 1 1 2 2 2 3 3 4 4 4 5 5 5
3 2 3 3 3 2 2 4 4 3 3 4 5 6 9 10 10 10 11 10 10 11 11 11 9 8 7 7 6 4 2 1 1 1 1 1 2 3 4 4 4 5 5 5
3 3 2 2 2 2 1 2 4 3 3 5 5 8 10 10 10 9 9 9 11 12 12 11 10 9 7 6 5 3 2 1 1 1 1 1 2 2 3 4 4 4 4 4
2 2 1 2 2 3 1 3 4 4 4 5 7 10 11 11 8 6 9 10 12 12 11 10 10 9 7 6 5 3 2 2 1 1 1 0 1 2 3 4 4 4 4 4
2 0 1 1 2 2 2 6 7 4 2 6 9 10 11 10 7 8 12 14 13 12 10 9 9 8 6 6 4 3 3 2 2 2 1 1 1 2 2 2 3 3 4 4
2 1 1 2 2 2 4 7 4 1 4 8 8 9 9 7 7 11 13 13 11 11 10 9 8 7 6 6 4 3 3 3 3 2 2 1 0 1 1 1 2 2 3 3
2 1 1 2 3 2 5 3 2 4 6 7 8 8 8 9 10 10 11 11 11 11 10 9 8 7 7 6 5 5 5 4 4 3 2 2 1 1 1 2 1 2 3 3
2 2 2 2 1 2 2 3 4 4 6 7 8 8 8 8 9 10 11 11 11 10 10 9 8 8 8 7 6 5 6 5 4 3 3 2 2 1 1 2 2 2 2 2
1 1 2 3 2 3 4 4 5 5 5 7 7 8 7 8 8 9 9 9 10 10 9 9 9 8 9 9 8 6 6 5 4 3 3 3 2 2 2 1 1 1 2 2
3 2 2 3 4 4 2 4 6 6 7 7 7 7 7 7 8 8 8 9 8 9 9 8 8 8 9 9 8 8 7 5 4 4 3 3 3 2 2 2 2 1 1 1
1 2 2 3 3 3 4 6 7 7 7 7 8 8 7 6 7 7 7 7 8 8 8 8 9 8 8 8 8 8 7 6 5 4 4 3 2 2 2 3 4 6 4 4
Wind_Direction
200 212 230 237 233 254 255 250 256 260 256 244 245 249 246 246 248 248 243 238 234 235 232 220 211 197 189 183 179 175 171 168 161 159 162 167 168 170 164 156 157 157 154 153
209 246 263 275 261 252 248 251 257 267 264 250 252 254 250 244 240 248 246 242 242 249 249 225 210 192 189 187 186 180 174 171 172 171 167 168 162 170 162 152 157 161 159 157
240 314 306 259 258 249 246 244 254 266 281 247 253 257 238 233 230 240 255 255 251 249 250 237 225 208 193 191 192 185 178 175 177 169 156 147 142 149 158 161 162 163 165 162
267 304 308 274 267 261 260 254 255 256 252 243 226 251 229 218 226 254 277 280 275 269 263 257 233 218 206 200 193 185 179 175 176 170 166 164 168 173 174 166 164 161 168 168
279 304 298 281 281 262 268 280 254 244 243 253 234 244 249 209 233 267 304 313 318 311 297 278 263 242 224 205 189 182 175 175 175 176 173 172 175 175 167 163 163 165 168 170
293 300 294 291 301 266 281 278 252 227 227 240 229 226 253 221 256 287 321 337 344 342 341 327 316 305 282 201 177 172 172 174 177 176 175 176 176 173 167 167 168 170 171 174
310 307 351 333 335 345 332 232 213 209 214 236 207 218 254 346 330 326 335 347 350 353 353 348 346 329 310 224 177 172 172 171 175 178 177 178 178 177 175 174 178 176 176 182
303 299 352 353 332 291 254 230 235 237 234 235 204 224 196 10 1 354 355 359 2 359 352 346 335 323 305 231 198 178 176 175 176 177 178 179 179 179 180 180 180 181 183 186
296 284 333 345 339 317 281 250 276 274 252 245 232 231 269 0 1 2 1 3 1 356 354 349 337 330 318 245 203 189 179 173 176 178 177 177 179 180 179 179 180 181 182 179
294 281 311 334 325 2 320 285 272 245 235 238 245 240 289 350 350 356 356 353 350 348 351 351 344 332 322 260 201 185 182 177 177 178 179 179 182 182 179 177 178 179 179 174
303 273 303 337 349 333 353 333 289 256 266 257 249 249 18 359 355 347 344 344 344 346 346 344 338 333 340 329 191 177 183 181 179 178 180 178 178 177 177 177 179 179 176 172
329 291 280 280 328 349 346 339 300 258 263 271 265 283 14 359 351 348 347 348 348 349 347 347 346 346 351 347 276 183 181 183 185 183 184 179 175 173 176 177 178 179 179 175
339 302 303 274 164 25 1 358 329 282 269 262 255 275 5 351 348 349 350 350 349 352 356 355 355 354 353 350 329 226 185 169 175 181 183 178 174 175 177 178 179 179 178 177
326 261 269 270 291 311 315 323 331 301 259 265 270 296 332 345 345 346 347 347 349 353 357 355 352 351 347 349 349 341 261 173 175 176 181 179 178 177 177 178 177 179 178 178
343 273 266 280 296 290 301 307 312 308 283 273 290 302 322 336 338 340 344 345 348 351 352 350 348 346 343 343 344 343 332 245 191 182 183 185 180 175 172 173 175 176 177 179
343 280 272 269 275 303 329 340 321 292 305 293 302 307 337 337 342 344 344 343 343 344 343 340 339 338 338 336 330 331 327 311 218 193 189 176 169 171 173 169 169 172 175 177
303 277 270 267 294 288 311 329 332 328 333 317 303 318 335 339 342 338 334 334 332 332 331 331 330 327 327 326 320 316 318 310 220 170 151 159 164 170 174 171 169 173 178 180
272 269 261 278 290 250 16 5 334 311 349 349 337 335 334 329 324 325 331 331 329 328 327 325 324 325 327 329 326 327 331 355 29 63 106 129 158 171 173 174 175 177 179 181
269 253 258 258 253 260 280 354 331 295 303 357 341 336 336 332 321 332 349 341 329 323 321 320 323 323 328 334 337 347 355 22 35 24 19 4 178 169 175 178 180 178 176 179
25 322 247 251 254 255 345 335 320 269 277 2 341 333 336 340 332 328 335 330 328 328 328 328 329 332 338 342 346 2 8 13 2 345 335 314 204 171 171 181 182 180 177 179
333 329 282 260 253 275 357 332 323 288 329 335 329 328 331 329 316 316 324 328 334 336 337 339 341 345 348 348 354 5 6 353 339 339 347 342 289 163 156 155 170 170 166 167
288 280 254 245 245 280 9 4 6 330 329 328 329 327 323 323 326 330 333 337 344 346 347 348 352 356 357 359 5 9 0 352 353 357 8 5 8 65 127 137 144 148 150 150
257 277 281 252 277 356 353 338 339 337 326 331 331 329 326 328 333 336 339 342 346 350 353 356 1 2 2 3 6 6 353 357 7 11 13 16 21 54 117 138 142 140 142 148
277 288 250 263 273 314 327 341 347 351 340 331 330 329 330 330 333 337 342 345 349 351 355 359 4 5 2 2 4 2 358 4 18 20 13 16 28 47 65 95 128 143 149 153
305 285 267 263 293 321 337 342 340 337 333 332 334 333 331 333 335 338 340 344 349 352 355 1 4 3 358 358 2 3 4 11 21 22 19 20 28 46 60 62 59 79 70 147
304 268 274 283 319 301 308 330 332 329 331 333 334 336 338 338 335 339 341 344 348 351 356 0 1 2 359 0 3 4 5 11 22 25 22 23 27 39 56 67 59 50 55 62
Height
1493 1492 1488 1487 1487 1485 1484 1483 1481 1479 1481 1482 1477 1475 1476 1477 1478 1477 1477 1478 1478 1479 1480 1481 1482 1483 1485 1488 1490 1493 1496 1500 1503 1506 1509 1512 1515 1518 1521 1523 1526 1528 1531 1533
1492 1490 1489 1490 1490 1488 1485 1483 1480 1479 1481 1480 1476 1474 1474 1475 1475 1476 1475 1475 1476 1476 1477 1478 1479 1480 1482 1484 1487 1490 1493 1497 1500 1503 1506 1510 1513 1516 1518 1521 1523 1526 1529 1531
1491 1492 1491 1490 1489 1487 1483 1481 1480 1481 1480 1477 1477 1470 1469 1470 1473 1474 1474 1474 1474 1474 1474 1475 1476 1477 1479 1480 1483 1487 1490 1493 1497 1501 1504 1507 1510 1513 1516 1518 1521 1524 1527 1529
1492 1492 1491 1489 1487 1486 1481 1479 1481 1481 1480 1473 1474 1465 1462 1466 1469 1471 1472 1472 1472 1472 1473 1473 1473 1474 1476 1478 1481 1484 1487 1490 1494 1498 1501 1503 1506 1509 1511 1514 1518 1521 1524 1527
1491 1492 1490 1488 1486 1486 1482 1481 1480 1479 1478 1476 1472 1470 1460 1464 1467 1468 1471 1471 1471 1471 1470 1470 1471 1472 1473 1475 1478 1480 1484 1487 1491 1494 1498 1501 1504 1507 1510 1512 1515 1518 1521 1524
1493 1493 1491 1488 1487 1486 1484 1481 1477 1476 1475 1474 1465 1467 1458 1465 1468 1469 1470 1470 1470 1470 1469 1469 1469 1470 1471 1472 1474 1477 1480 1483 1487 1491 1494 1497 1500 1503 1506 1509 1512 1515 1518 1520
1492 1491 1491 1490 1486 1484 1483 1479 1473 1472 1470 1462 1461 1465 1465 1471 1473 1472 1472 1471 1470 1469 1468 1467 1467 1467 1468 1469 1471 1474 1477 1480 1483 1487 1490 1494 1497 1500 1503 1505 1509 1512 1514 1517
1494 1489 1491 1491 1489 1486 1483 1480 1476 1470 1461 1457 1464 1463 1469 1475 1475 1474 1473 1472 1471 1469 1468 1467 1466 1466 1466 1468 1469 1472 1474 1477 1480 1483 1487 1491 1494 1497 1500 1503 1506 1508 1511 1514
1498 1492 1492 1492 1491 1489 1485 1482 1481 1476 1466 1465 1462 1466 1472 1475 1474 1473 1473 1472 1470 1469 1467 1466 1465 1464 1465 1466 1468 1470 1472 1475 1478 1481 1484 1487 1490 1493 1496 1499 1502 1505 1508 1511
1505 1500 1493 1493 1492 1491 1490 1487 1484 1477 1468 1461 1460 1462 1467 1474 1474 1474 1473 1472 1471 1469 1467 1466 1464 1464 1464 1464 1466 1468 1470 1473 1475 1478 1481 1484 1487 1489 1493 1496 1498 1501 1504 1507
1507 1503 1495 1493 1493 1492 1492 1490 1487 1479 1474 1465 1461 1467 1478 1478 1478 1478 1476 1474 1472 1470 1468 1465 1464 1463 1463 1463 1464 1466 1468 1471 1473 1476 1478 1481 1484 1486 1489 1492 1495 1498 1501 1503
1507 1503 1496 1495 1496 1496 1495 1494 1491 1485 1480 1475 1469 1477 1482 1482 1481 1480 1477 1475 1473 1471 1468 1465 1463 1462 1462 1462 1463 1464 1466 1469 1471 1473 1476 1478 1481 1483 1486 1488 1491 1494 1497 1500
1509 1507 1498 1492 1497 1498 1497 1497 1495 1492 1486 1480 1475 1480 1484 1484 1483 1481 1478 1476 1473 1471 1468 1465 1463 1461 1461 1461 1462 1463 1465 1466 1469 1471 1473 1476 1478 1480 1483 1485 1488 1490 1493 1496
1509 1507 1505 1499 1496 1499 1499 1498 1495 1493 1489 1485 1484 1483 1486 1486 1484 1483 1480 1477 1475 1472 1469 1466 1463 1461 1461 1461 1461 1462 1463 1465 1467 1469 1471 1473 1475 1477 1480 1482 1485 1487 1490 1493
1510 1507 1505 1503 1502 1500 1499 1498 1497 1496 1493 1491 1489 1489 1490 1490 1488 1485 1482 1478 1475 1472 1469 1466 1464 1462 1460 1460 1460 1461 1462 1463 1465 1466 1468 1471 1473 1474 1476 1479 1481 1484 1487 1489
1511 1509 1507 1503 1501 1500 1500 1500 1499 1498 1497 1495 1492 1492 1494 1493 1490 1486 1482 1479 1475 1472 1469 1467 1464 1461 1459 1458 1458 1459 1460 1461 1462 1464 1466 1468 1470 1472 1474 1476 1478 1481 1483 1486
1511 1510 1506 1499 1500 1500 1500 1504 1503 1502 1502 1500 1496 1498 1497 1492 1489 1486 1483 1479 1476 1473 1469 1466 1464 1461 1459 1458 1457 1457 1458 1459 1461 1462 1463 1465 1467 1469 1471 1473 1476 1478 1480 1482
1513 1510 1506 1501 1501 1503 1506 1507 1506 1504 1504 1503 1502 1500 1497 1494 1490 1486 1483 1479 1475 1471 1468 1465 1463 1460 1458 1457 1456 1456 1457 1457 1458 1459 1461 1463 1464 1466 1468 1470 1472 1475 1477 1479
1513 1510 1506 1503 1501 1500 1504 1506 1507 1505 1502 1504 1502 1500 1497 1493 1487 1483 1481 1478 1475 1470 1467 1464 1461 1459 1457 1455 1455 1455 1455 1455 1456 1458 1459 1460 1462 1464 1466 1468 1470 1472 1474 1476
1513 1512 1508 1506 1503 1502 1506 1508 1506 1506 1500 1504 1503 1500 1497 1493 1487 1484 1480 1477 1472 1469 1465 1462 1460 1457 1456 1455 1454 1454 1453 1454 1455 1456 1457 1458 1460 1462 1463 1465 1467 1469 1471 1473
1513 1512 1511 1508 1506 1503 1511 1509 1506 1505 1505 1506 1503 1501 1498 1495 1493 1488 1481 1476 1471 1467 1464 1461 1459 1456 1455 1454 1454 1453 1453 1453 1454 1455 1455 1457 1458 1459 1461 1463 1465 1466 1468 1470
1515 1512 1513 1510 1508 1510 1513 1510 1510 1510 1508 1506 1503 1500 1497 1494 1490 1485 1481 1475 1470 1466 1463 1460 1458 1456 1455 1454 1453 1452 1453 1453 1453 1454 1454 1455 1456 1457 1459 1461 1462 1464 1466 1467
1519 1518 1514 1514 1514 1514 1513 1513 1512 1510 1508 1505 1502 1499 1496 1493 1489 1485 1480 1476 1472 1467 1464 1461 1458 1456 1456 1455 1454 1453 1452 1452 1452 1453 1453 1454 1455 1456 1458 1459 1461 1462 1464 1465
1520 1521 1519 1516 1513 1514 1513 1512 1511 1509 1507 1505 1502 1499 1495 1492 1488 1484 1480 1477 1473 1469 1465 1462 1459 1457 1456 1455 1454 1453 1452 1452 1452 1452 1453 1453 1454 1455 1456 1458 1459 1461 1462 1463
1521 1520 1518 1515 1514 1513 1512 1512 1510 1508 1506 1503 1500 1498 1495 1492 1488 1484 1481 1477 1474 1470 1467 1464 1461 1459 1458 1456 1455 1454 1453 1453 1452 1452 1452 1453 1453 1454 1455 1456 1458 1459 1460 1462
1521 1521 1519 1515 1516 1515 1513 1511 1510 1507 1505 1502 1499 1496 1494 1491 1488 1485 1481 1478 1475 1472 1469 1466 1464 1462 1460 1458 1456 1455 1454 1453 1453 1452 1452 1453 1453 1454 1454 1455 1456 1458 1459 1460